Погода в Красилове

Украина / Хмельницкая область     49°39′13″N   26°58′14″E
темп.,
°C
ветер,
м/с
пор.,
м/с
влажн.,
%
обл.,
%
осадки,
мм/ч
давл.,
гПа
погр.,
м
5 августа, чт
чт500:00+15юв228751 0.1 101514
03:00+16юв2289100 0.1 101419
06:00+15ююв3494100 0.0 101360
09:00+20ююв2381100 0.0 1012241
12:00+25ююв346229 0.9 1010597
15:00+28ююв35446 1.2 10091921
18:00+27юв455641 0.0 10061173
21:00+22вюв4117698 0.1 1004207
6 августа, пт
пт600:00+17ююв1190100 11.3 100522
03:00+16юз119679 12.1 100313
06:00+16ю3698100 0.1 1002146
09:00+20юз4582100 0.1 1003342
12:00+23зюз5660100 0.0 10041126
15:00+24з565753 0.1 10031503
18:00+21зсз4579100 1.8 1005527
21:00+17зсз5992100 2.7 1006355
7 августа, сб
сб700:00+15зсз3897100 0.0 1009373
03:00+14зсз489629 0.0 1009392
06:00+12зсз389846 0.0 1011275
09:00+15сз578113 0.0 1012625
12:00+20сз46550 0.0 10131079
15:00+22сз45460 0.0 10131444
18:00+23сз34490 0.0 10131504
21:00+17св11700 0.0 101411
8 августа, вс
вс800:00+16ю22745 0.0 101513
03:00+15ю337420 0.0 101534
06:00+14ю33766 0.0 101628
09:00+20ю34613 0.0 1016267
12:00+24ю45505 0.0 10161026
15:00+27ю44445 0.0 10151485
18:00+26ю445113 0.0 10151149
21:00+20ююв336921 0.0 101639
9 августа, пн
пн900:00+18ююв35740 0.0 101671
03:00+17ююв477339 0.0 1016106
06:00+17ююв367057 0.0 1015102
09:00+21юз476296 0.0 1017387
12:00+21зюз477798 0.2 1018436
15:00+24зсз566211 0.2 10181080
18:00+22сз577350 0.1 1018637
21:00+19ссз33793 0.1 101935